[[{"header":{"parameterUnit":"m.s-1","parameterCategory":1,"la1":30.2991,"la2":30.254,"lo1":-89.0895,"lo2":-89.0444,"dy":0.0017,"dx":0.0017,"nx":28,"ny":28,"refTime":"2023-07-31T09:00:00:Z","depth":0,"parameterNumber":2,"parameterNumberName":"U-component_of_WINDS"},"data":[0,0,0,0,0,0,0,0,0,0,0,0,0,0,0,0,0,0,0,0,0,0,0,0,0,0,0,0,0,0,0,0,0,0,0,0,0,0,0,0,0,0,0,0,0,0,0,0,0,0,0,0,0,0,0,0,0,0,1.0914,1.0916,0,1.1046,1.1048,1.1049,1.1087,1.1086,1.1086,1.1085,1.122,1.1224,1.1228,0,0,0,0,0,0,0,0,0,0,0,0,0,1.0693,1.0697,1.0914,1.0916,1.0918,1.1046,1.1048,1.105,1.1087,1.1086,1.1086,1.1085,1.1218,1.1223,1.1228,0,0,0,0,0,0,0,0,0,0,0,0,0,1.0804,1.0699,1.0914,1.0952,1.0957,1.1046,1.1048,1.105,1.1087,1.1086,1.1085,1.1084,1.1216,1.1223,1.1229,1.129,0,0,1.1248,1.1251,0,0,0,0,0,0,0,0,1.0797,1.0812,1.0945,1.0949,1.0955,1.1049,1.102,1.1131,1.1088,1.1038,1.1085,1.1084,1.1164,1.1174,1.1201,1.1296,1.1302,1.1249,1.1253,1.1256,1.1257,0,0,0,0,0,0,0,1.079,1.0806,1.0967,1.0947,1.0953,1.0962,1.0976,1.1041,1.1105,1.1042,1.1045,1.106,1.1166,1.1195,1.1205,1.1304,1.1249,1.1254,1.1258,1.1261,1.1454,1.1456,0,0,0,0,0,0,1.0776,1.08,1.0962,1.0971,1.0872,1.0967,1.0983,1.102,1.1105,1.1116,1.1061,1.1062,1.1185,1.1197,1.121,1.1286,1.1256,1.1261,1.1265,1.1453,1.1455,1.1456,0,0,0,0,0,0,1.0771,1.079,1.0957,1.0886,1.0908,1.0972,1.1013,1.1023,1.1052,1.1119,1.113,1.1079,1.1184,1.1201,1.127,1.1291,1.1264,1.127,1.1452,1.1454,1.1455,1.1439,0,0,0,0,0,0,1.0764,1.0788,1.0812,1.0886,1.0912,1.1015,1.1014,1.1027,1.1063,1.1065,1.1139,1.115,1.1185,1.126,1.1276,1.1299,1.1275,1.145,1.1452,1.1455,1.1438,1.144,1.1442,0,0,0,0,0,1.0756,1.0802,1.0813,1.0832,1.0943,1.1016,1.103,1.107,1.1065,1.1089,1.1132,1.1147,1.1286,1.1267,1.1285,1.1311,1.1449,1.1452,1.1455,1.1437,1.144,1.1442,0,0,0,0,0,0,1.0728,1.0813,1.0826,1.0897,1.0949,1.1022,1.1054,1.1072,1.1127,1.1126,1.1173,1.1189,1.1254,1.129,1.1266,1.1374,1.1368,1.1375,1.1348,1.1351,1.1353,1.1343,1.128,0,0,0,0,0,1.0731,1.0783,1.0854,1.091,1.0935,1.099,1.1023,1.1049,1.1105,1.1127,1.1175,1.1229,1.1284,1.132,1.1375,1.1443,1.146,1.147,1.1472,1.1474,1.1479,1.1517,1.1522,1.1466,1.1466,1.1466,0,0,1.0735,1.0788,1.0818,1.0905,1.0949,1.1002,1.1008,1.1064,1.1104,1.1136,1.1204,1.1241,1.1303,1.1372,1.1404,1.1403,1.1498,1.1478,1.1478,1.1483,1.1521,1.1526,1.153,1.1468,1.1468,1.1467,0,0,1.0771,1.0816,1.0868,1.0911,1.0977,1.1013,1.1025,1.1096,1.1122,1.1191,1.1216,1.1263,1.1359,1.1402,1.1436,1.1488,1.1504,1.1505,1.1516,1.1552,1.1557,1.1561,1.1578,1.1584,1.151,1.151,1.151,0,1.0769,1.085,1.0892,1.0946,1.0984,1.1015,1.1067,1.1107,1.1188,1.1212,1.121,1.133,1.1374,1.1453,1.1465,1.1493,1.1508,1.1496,1.1553,1.1557,1.1562,1.1579,1.1586,1.1509,1.1509,1.151,1.151,0,1.0843,1.0899,1.0932,1.1009,1.105,1.1103,1.1153,1.1189,1.1212,1.1248,1.1317,1.1372,1.1438,1.1459,1.1481,1.1541,1.1538,1.1544,1.1538,1.1566,1.1583,1.159,1.1509,1.1509,1.1509,1.1509,0,0,1.0864,1.0964,1.0975,1.101,1.1085,1.1129,1.1183,1.1248,1.1278,1.1332,1.1378,1.1458,1.1463,1.1503,1.153,1.1563,1.1599,1.1565,1.1567,1.1568,1.1667,1.1661,1.1668,1.161,1.1612,1.1613,1.1661,0,1.0909,1.1007,1.1046,1.1126,1.1177,1.1208,1.1255,1.1306,1.1341,1.139,1.1429,1.1484,1.1488,1.1512,1.1545,1.1587,1.1619,1.1585,1.1653,1.1655,1.1635,1.1678,1.1672,1.1715,1.1668,1.167,1.167,0,1.0973,1.1028,1.1113,1.1181,1.1204,1.1246,1.1308,1.1355,1.1413,1.1436,1.1479,1.1505,1.1563,1.1554,1.1634,1.1609,1.164,1.1665,1.1667,1.1674,1.1664,1.1685,1.173,1.1736,1.1682,1.1681,1.168,0,1.0979,1.1074,1.1137,1.1166,1.1248,1.1276,1.1311,1.1368,1.1405,1.1459,1.1483,1.1543,1.1576,1.1622,1.1663,1.1654,1.1739,1.1734,1.1759,1.1758,1.1775,1.1773,1.1824,1.1796,1.1796,1.1796,1.1796,0,1.1024,1.1074,1.1141,1.1179,1.1236,1.1281,1.1336,1.1373,1.1424,1.1469,1.15,1.1542,1.1595,1.1644,1.1677,1.1737,1.1752,1.1772,1.178,1.1768,1.1766,1.1788,1.1786,1.1797,1.1797,1.1797,1.1796,0,1.104,1.1086,1.1157,1.1228,1.1247,1.1286,1.1347,1.1385,1.1422,1.1479,1.1496,1.1553,1.1612,1.1658,1.1735,1.1757,1.1821,1.183,1.1801,1.1805,1.1827,1.1824,1.1894,1.1905,1.1869,1.187,1.187,0,1.1065,1.1104,1.118,1.1213,1.1248,1.1301,1.1338,1.1384,1.1421,1.149,1.152,1.1581,1.1632,1.1725,1.1774,1.1833,1.1843,1.1863,1.1852,1.1839,1.1842,1.1839,1.1843,1.1864,1.1865,1.1865,1.1865,0,1.1104,1.1125,1.1178,1.1239,1.1283,1.1332,1.1383,1.1408,1.1463,1.1503,1.1564,1.1604,1.1682,1.1743,1.1806,1.1842,1.1862,1.1868,1.1877,1.1865,1.1847,1.1856,1.1804,1.1866,1.1866,1.1866,1.1866,1.1866,1.1125,1.1161,1.122,1.1278,1.1321,1.1367,1.1406,1.1448,1.15,1.1567,1.1591,1.1653,1.171,1.1798,1.1834,1.1883,1.1884,1.1897,1.19,1.1903,1.1901,1.184,1.1895,1.1895,1.1895,1.1895,1.1895,0,1.1165,1.1205,1.1257,1.1327,1.1372,1.1388,1.1444,1.1481,1.1535,1.1587,1.1637,1.1706,1.1765,1.1818,1.1879,1.1908,1.1919,1.1922,1.192,1.1928,1.1897,1.1883,1.1913,1.1913,1.1913,1.1913,1.1913,1.1912,1.1192,1.1253,1.1281,1.1364,1.1404,1.1465,1.1496,1.1539,1.158,1.1656,1.1705,1.1739,1.1791,1.1856,1.191,1.1925,1.1945,1.1946,1.1962,1.1933,1.193,1.1928,1.1915,1.1951,1.1951,1.1989,1.199,1.199]},{"header":{"parameterUnit":"m.s-1","parameterCategory":1,"la1":30.2991,"la2":30.254,"lo1":-89.0895,"lo2":-89.0444,"dy":0.0017,"dx":0.0017,"nx":28,"ny":28,"refTime":"2023-07-31T09:00:00:Z","depth":0,"parameterNumber":3,"parameterNumberName":"V-component_of_WINDS"},"data":[0,0,0,0,0,0,0,0,0,0,0,0,0,0,0,0,0,0,0,0,0,0,0,0,0,0,0,0,0,0,0,0,0,0,0,0,0,0,0,0,0,0,0,0,0,0,0,0,0,0,0,0,0,0,0,0,0,0,2.4213,2.4212,0,2.4135,2.4134,2.4133,2.4029,2.4027,2.4025,2.4024,2.3944,2.3943,2.3943,0,0,0,0,0,0,0,0,0,0,0,0,0,2.4271,2.4271,2.4213,2.4212,2.4211,2.4135,2.4134,2.4133,2.4029,2.4027,2.4025,2.4023,2.3944,2.3943,2.3943,0,0,0,0,0,0,0,0,0,0,0,0,0,2.4225,2.4271,2.4213,2.415,2.4144,2.4135,2.4134,2.4133,2.403,2.4027,2.4024,2.4022,2.3944,2.3943,2.3943,2.399,0,0,2.394,2.394,0,0,0,0,0,0,0,0,2.4228,2.4223,2.416,2.4154,2.4147,2.4089,2.4125,2.4085,2.403,2.4073,2.4024,2.4021,2.3994,2.3989,2.398,2.3986,2.3983,2.394,2.394,2.3939,2.3939,0,0,0,0,0,0,0,2.4231,2.4226,2.4182,2.416,2.4152,2.4125,2.4116,2.4117,2.4049,2.4069,2.4061,2.4053,2.399,2.3981,2.3978,2.3981,2.394,2.394,2.3939,2.3939,2.402,2.4023,0,0,0,0,0,0,2.4244,2.4229,2.4184,2.418,2.4182,2.4126,2.4116,2.411,2.4049,2.4037,2.4056,2.4049,2.3984,2.3979,2.3974,2.4025,2.3939,2.3939,2.3938,2.4018,2.4021,2.4024,0,0,0,0,0,0,2.4245,2.4241,2.4188,2.4202,2.4193,2.4128,2.4123,2.411,2.4101,2.4039,2.4026,2.4059,2.3982,2.3975,2.3986,2.402,2.3938,2.3938,2.4015,2.4019,2.4022,2.4127,0,0,0,0,0,0,2.4247,2.4242,2.426,2.4203,2.4193,2.4202,2.4125,2.411,2.41,2.409,2.4039,2.4028,2.3979,2.3988,2.3986,2.4018,2.3937,2.4011,2.4017,2.4021,2.412,2.4134,2.4146,0,0,0,0,0,2.425,2.4292,2.4261,2.4256,2.4214,2.4204,2.4198,2.4141,2.4103,2.412,2.408,2.4029,2.4017,2.399,2.3986,2.4019,2.4009,2.4015,2.4021,2.4114,2.4131,2.4145,0,0,0,0,0,0,2.4354,2.4284,2.4248,2.4274,2.4246,2.4186,2.4206,2.4161,2.4143,2.4135,2.4065,2.4054,2.4074,2.4047,2.4019,2.4061,2.4005,2.4011,2.4078,2.4093,2.4106,2.4112,2.3936,0,0,0,0,0,2.438,2.4379,2.4317,2.4345,2.4333,2.4272,2.4266,2.4224,2.4192,2.418,2.4141,2.4111,2.4101,2.4095,2.4082,2.4115,2.4102,2.4136,2.4149,2.4159,2.4165,2.418,2.4194,2.4043,2.4043,2.4043,0,0,2.4434,2.4395,2.4398,2.4365,2.4338,2.4338,2.4263,2.4266,2.4264,2.418,2.4188,2.4158,2.4121,2.4143,2.4151,2.4122,2.4204,2.4167,2.4176,2.4176,2.4187,2.4202,2.4214,2.4047,2.4047,2.4046,0,0,2.4532,2.4502,2.4522,2.4497,2.4457,2.4416,2.4422,2.4369,2.4346,2.4352,2.4289,2.4286,2.427,2.4245,2.4231,2.4318,2.4271,2.4316,2.4383,2.4398,2.441,2.442,2.4451,2.4463,2.4321,2.4322,2.4322,0,2.4603,2.46,2.4538,2.4545,2.4532,2.4455,2.4475,2.4453,2.4412,2.4404,2.4372,2.4349,2.4318,2.4333,2.4354,2.4345,2.4348,2.4322,2.4413,2.4423,2.4431,2.446,2.4472,2.4327,2.4327,2.4326,2.4326,0,2.469,2.4689,2.4709,2.4671,2.466,2.4673,2.4613,2.4609,2.4569,2.4531,2.4539,2.4499,2.4476,2.4477,2.4437,2.4486,2.4469,2.4426,2.4369,2.4452,2.4478,2.4488,2.4336,2.4334,2.4332,2.433,0,0,2.4852,2.4778,2.4787,2.4768,2.4719,2.4716,2.4725,2.4703,2.4701,2.4674,2.468,2.4667,2.4627,2.461,2.4567,2.4581,2.4652,2.4535,2.4533,2.4558,2.4702,2.4735,2.4749,2.462,2.4621,2.4623,2.4705,0,2.494,2.4952,2.4896,2.4923,2.492,2.4847,2.4855,2.4825,2.479,2.4782,2.4743,2.4735,2.4682,2.4672,2.4682,2.4641,2.468,2.4634,2.4624,2.4624,2.4636,2.4762,2.4797,2.4877,2.4715,2.4716,2.4718,0,2.5045,2.5024,2.505,2.4998,2.4995,2.5003,2.4977,2.4971,2.4935,2.4909,2.489,2.484,2.4845,2.479,2.4795,2.4766,2.4758,2.4737,2.4739,2.4736,2.4677,2.4763,2.4901,2.4913,2.4733,2.4732,2.4731,0,2.516,2.5139,2.5151,2.5137,2.5077,2.5084,2.506,2.5021,2.5011,2.4988,2.4981,2.4959,2.4947,2.4932,2.4877,2.4842,2.4888,2.4829,2.4866,2.4867,2.4879,2.4879,2.5018,2.4874,2.4874,2.4874,2.4873,0,2.5265,2.5284,2.5202,2.521,2.5229,2.5164,2.5184,2.5152,2.5118,2.5118,2.5053,2.5054,2.4982,2.4975,2.4931,2.4942,2.4937,2.4915,2.4904,2.4921,2.4924,2.4916,2.4909,2.4877,2.4876,2.4875,2.4875,0,2.5398,2.5344,2.5353,2.5294,2.528,2.5297,2.5246,2.5251,2.5211,2.5212,2.5208,2.5146,2.5134,2.5078,2.5053,2.5023,2.5049,2.5026,2.5061,2.5054,2.5094,2.5091,2.5232,2.5247,2.5094,2.5096,2.5097,0,2.5468,2.5481,2.5424,2.5419,2.5397,2.5391,2.538,2.5316,2.5307,2.5267,2.5276,2.5259,2.5242,2.5226,2.5178,2.5158,2.5134,2.5185,2.5131,2.5148,2.5135,2.5135,2.5136,2.5197,2.5199,2.5201,2.5202,0,2.5599,2.5571,2.5558,2.5536,2.5524,2.5504,2.5479,2.5479,2.5407,2.5401,2.5388,2.5375,2.5348,2.5332,2.5304,2.5277,2.5228,2.5219,2.5227,2.5245,2.5266,2.5255,2.5093,2.5217,2.5215,2.5214,2.5213,2.5213,2.5702,2.571,2.5671,2.5658,2.5633,2.5611,2.5612,2.5573,2.5561,2.5535,2.5497,2.5489,2.5452,2.5409,2.5386,2.5378,2.535,2.5361,2.5364,2.5368,2.5377,2.5267,2.5373,2.5372,2.5372,2.5372,2.5371,0,2.583,2.5801,2.579,2.5757,2.5747,2.5701,2.5671,2.5665,2.5659,2.5628,2.5613,2.5597,2.5581,2.5532,2.551,2.5513,2.549,2.5509,2.5509,2.5503,2.5403,2.5399,2.5529,2.5529,2.5529,2.5529,2.5529,2.5528,2.5895,2.5906,2.5873,2.587,2.584,2.5832,2.5819,2.5798,2.5773,2.5759,2.5745,2.5713,2.5674,2.5649,2.5632,2.5617,2.5612,2.564,2.5618,2.5526,2.5511,2.5496,2.5492,2.5639,2.5639,2.5719,2.572,2.572]}]]